Time,TemperatureF,DewpointF,PressureIn,WindDirection,WindDirectionDegrees,WindSpeedMPH,WindSpeedGustMPH,Humidity,HourlyPrecipIn,Conditions,Clouds,dailyrainin,SoftwareType,DateUTC
2013-02-19 00:05:00,37.8,36.2,29.67,NW,315,1.6,3.1,94,0.00,,,0.00,pywws,2013-02-19 00:05:00,
2013-02-19 00:56:00,37.8,36.2,29.67,NE,45,0.7,2.2,94,0.00,,,0.00,pywws,2013-02-19 00:56:00,
2013-02-19 01:05:00,37.8,36.2,29.67,NE,45,0.7,2.2,94,0.00,,,0.00,pywws,2013-02-19 01:05:00,
2013-02-19 01:56:00,36.7,35.6,29.67,SE,135,0.7,2.2,96,0.00,,,0.00,pywws,2013-02-19 01:56:00,
2013-02-19 02:05:00,36.7,35.6,29.67,SE,135,0.7,2.2,96,0.00,,,0.00,pywws,2013-02-19 02:05:00,
2013-02-19 02:56:00,35.6,35.3,29.66,NW,315,0.7,2.2,99,0.00,,,0.00,pywws,2013-02-19 02:56:00,
2013-02-19 03:05:00,35.6,35.3,29.66,NW,315,0.7,2.2,99,0.00,,,0.00,pywws,2013-02-19 03:05:00,
2013-02-19 03:56:00,34.7,34.4,29.65,North,0,0.0,0.7,99,0.00,,,0.00,pywws,2013-02-19 03:56:00,
2013-02-19 04:05:00,34.7,34.4,29.65,North,0,0.0,0.7,99,0.00,,,0.00,pywws,2013-02-19 04:05:00,
2013-02-19 04:56:00,34.2,33.9,29.65,NE,45,0.0,0.0,99,0.00,,,0.00,pywws,2013-02-19 04:56:00,
2013-02-19 05:05:00,34.2,33.9,29.65,NE,45,0.0,0.0,99,0.00,,,0.00,pywws,2013-02-19 05:05:00,
2013-02-19 05:56:00,33.6,33.4,29.65,North,0,0.0,1.6,99,0.00,,,0.00,pywws,2013-02-19 05:56:00,
2013-02-19 06:05:00,33.6,33.4,29.65,North,0,0.0,1.6,99,0.00,,,0.00,pywws,2013-02-19 06:05:00,
2013-02-19 06:56:00,32.4,32.1,29.66,East,90,0.0,0.0,99,0.00,,,0.00,pywws,2013-02-19 06:56:00,
2013-02-19 07:05:00,32.4,32.1,29.66,East,90,0.0,0.0,99,0.00,,,0.00,pywws,2013-02-19 07:05:00,
2013-02-19 07:56:00,32.7,32.5,29.66,NW,315,0.0,0.0,99,0.00,,,0.00,pywws,2013-02-19 07:56:00,
2013-02-19 08:05:00,32.7,32.5,29.66,NW,315,0.0,0.0,99,0.00,,,0.00,pywws,2013-02-19 08:05:00,
2013-02-19 08:56:00,34.2,33.9,29.66,North,0,0.0,0.0,99,0.00,,,0.00,pywws,2013-02-19 08:56:00,
2013-02-19 09:05:00,34.2,33.9,29.66,North,0,0.0,0.0,99,0.00,,,0.00,pywws,2013-02-19 09:05:00,
2013-02-19 09:56:00,36.0,35.7,29.66,NNE,22,0.0,0.0,99,0.00,,,0.00,pywws,2013-02-19 09:56:00,
2013-02-19 10:05:00,36.0,35.7,29.66,NNE,22,0.0,0.0,99,0.00,,,0.00,pywws,2013-02-19 10:05:00,
2013-02-19 10:56:00,38.3,38.0,29.66,NE,45,0.0,0.0,99,0.00,,,0.00,pywws,2013-02-19 10:56:00,
2013-02-19 11:05:00,38.3,38.0,29.66,NE,45,0.0,0.0,99,0.00,,,0.00,pywws,2013-02-19 11:05:00,
2013-02-19 11:56:00,40.6,39.9,29.66,North,0,0.0,0.0,97,0.00,,,0.00,pywws,2013-02-19 11:56:00,
2013-02-19 12:05:00,40.6,39.9,29.66,North,0,0.0,0.0,97,0.00,,,0.00,pywws,2013-02-19 12:05:00,
2013-02-19 12:56:00,41.5,38.0,29.64,South,180,0.0,0.0,87,0.00,,,0.00,pywws,2013-02-19 12:56:00,
2013-02-19 13:05:00,41.5,38.0,29.64,South,180,0.0,0.0,87,0.00,,,0.00,pywws,2013-02-19 13:05:00,
2013-02-19 13:56:00,42.6,38.1,29.63,NE,45,0.0,1.6,84,0.00,,,0.00,pywws,2013-02-19 13:56:00,
2013-02-19 14:05:00,42.6,38.1,29.63,NE,45,0.0,1.6,84,0.00,,,0.00,pywws,2013-02-19 14:05:00,
2013-02-19 14:56:00,42.3,38.1,29.62,SW,225,0.0,0.7,85,0.00,,,0.00,pywws,2013-02-19 14:56:00,
2013-02-19 15:05:00,42.3,38.1,29.62,SW,225,0.0,0.7,85,0.00,,,0.00,pywws,2013-02-19 15:05:00,
2013-02-19 15:56:00,41.4,38.7,29.62,SW,225,0.0,0.0,90,0.00,,,0.00,pywws,2013-02-19 15:56:00,
2013-02-19 16:05:00,41.4,38.7,29.62,SW,225,0.0,0.0,90,0.00,,,0.00,pywws,2013-02-19 16:05:00,
2013-02-19 16:56:00,40.1,38.2,29.62,SW,225,0.0,0.0,93,0.00,,,0.00,pywws,2013-02-19 16:56:00,
2013-02-19 17:05:00,40.1,38.2,29.62,SW,225,0.0,0.0,93,0.00,,,0.00,pywws,2013-02-19 17:05:00,
2013-02-19 17:56:00,37.9,36.6,29.63,SW,225,0.0,0.0,95,0.00,,,0.00,pywws,2013-02-19 17:56:00,
2013-02-19 18:05:00,37.9,36.6,29.63,SW,225,0.0,0.0,95,0.00,,,0.00,pywws,2013-02-19 18:05:00,
2013-02-19 18:56:00,37.2,36.4,29.63,SW,225,0.0,0.0,97,0.00,,,0.00,pywws,2013-02-19 18:56:00,
2013-02-19 19:05:00,37.2,36.4,29.63,SW,225,0.0,0.0,97,0.00,,,0.00,pywws,2013-02-19 19:05:00,
2013-02-19 19:56:00,36.7,36.4,29.64,NE,45,0.0,0.0,99,0.00,,,0.00,pywws,2013-02-19 19:56:00,
2013-02-19 20:05:00,36.7,36.4,29.64,NE,45,0.0,0.0,99,0.00,,,0.00,pywws,2013-02-19 20:05:00,
2013-02-19 20:56:00,36.7,36.4,29.65,East,90,0.0,0.0,99,0.00,,,0.00,pywws,2013-02-19 20:56:00,
2013-02-19 21:05:00,36.7,36.4,29.65,East,90,0.0,0.0,99,0.00,,,0.00,pywws,2013-02-19 21:05:00,
2013-02-19 21:56:00,37.8,36.2,29.67,East,90,0.0,1.6,94,0.00,,,0.00,pywws,2013-02-19 21:56:00,
2013-02-19 22:05:00,37.8,36.2,29.67,East,90,0.0,1.6,94,0.00,,,0.00,pywws,2013-02-19 22:05:00,
2013-02-19 22:56:00,36.9,35.6,29.67,North,0,0.0,0.7,95,0.00,,,0.00,pywws,2013-02-19 22:56:00,
2013-02-19 23:05:00,36.9,35.6,29.67,North,0,0.0,0.7,95,0.00,,,0.00,pywws,2013-02-19 23:05:00,
2013-02-19 23:56:00,36.7,35.4,29.68,NE,45,0.0,1.6,95,0.00,,,0.00,pywws,2013-02-19 23:56:00,